Time,TemperatureF,DewpointF,PressureIn,WindDirection,WindDirectionDegrees,WindSpeedMPH,WindSpeedGustMPH,Humidity,HourlyPrecipIn,Conditions,Clouds,dailyrainin,SoftwareType,DateUTC
2013-11-01 00:01:00,48.3,37.1,29.78,West,281,0.0,0.0,65,0.00,,---,0.00,VWS V14.01,2013-11-01 05:01:00,
2013-11-01 00:06:00,48.8,37.2,29.78,WNW,297,0.0,1.0,64,0.00,,---,0.00,VWS V14.01,2013-11-01 05:06:00,
2013-11-01 00:11:00,49.6,37.1,29.78,WNW,286,0.0,1.0,62,0.00,,---,0.00,VWS V14.01,2013-11-01 05:11:00,
2013-11-01 00:16:00,50.3,37.0,29.79,NW,305,0.0,0.0,60,0.00,,---,0.00,VWS V14.01,2013-11-01 05:16:00,
2013-11-01 00:21:00,51.0,36.8,29.79,NW,306,2.0,4.0,58,0.00,,---,0.00,VWS V14.01,2013-11-01 05:21:00,
2013-11-01 00:26:00,51.7,37.0,29.79,West,279,0.0,5.0,57,0.00,,---,0.00,VWS V14.01,2013-11-01 05:26:00,
2013-11-01 00:31:00,52.1,36.9,29.79,WNW,298,0.0,1.0,56,0.00,,---,0.00,VWS V14.01,2013-11-01 05:31:00,
2013-11-01 00:36:00,52.3,36.6,29.79,NW,304,4.0,6.0,55,0.00,,---,0.00,VWS V14.01,2013-11-01 05:36:00,
2013-11-01 00:41:00,52.3,36.6,29.79,WNW,300,1.0,6.0,55,0.00,,---,0.00,VWS V14.01,2013-11-01 05:41:00,
2013-11-01 00:45:00,52.2,36.5,29.80,NW,308,0.0,6.0,55,0.00,,---,0.00,VWS V14.01,2013-11-01 05:45:00,
2013-11-01 00:50:00,52.0,36.8,29.80,NW,304,0.0,1.0,56,0.00,,---,0.00,VWS V14.01,2013-11-01 05:50:00,
2013-11-01 00:55:00,51.8,36.6,29.80,NW,305,0.0,1.0,56,0.00,,---,0.00,VWS V14.01,2013-11-01 05:55:00,
2013-11-01 01:00:00,51.6,36.4,29.80,NW,307,0.0,1.0,56,0.00,,---,0.00,VWS V14.01,2013-11-01 06:00:00,
2013-11-01 01:05:00,51.2,36.5,29.80,West,269,0.0,0.0,57,0.00,,---,0.00,VWS V14.01,2013-11-01 06:05:00,
2013-11-01 01:10:00,51.0,36.3,29.80,WNW,284,0.0,1.0,57,0.00,,---,0.00,VWS V14.01,2013-11-01 06:10:00,
2013-11-01 01:15:00,50.7,36.5,29.80,WSW,243,0.0,1.0,58,0.00,,---,0.00,VWS V14.01,2013-11-01 06:15:00,
2013-11-01 01:20:00,50.3,36.5,29.80,West,266,0.0,0.0,59,0.00,,---,0.00,VWS V14.01,2013-11-01 06:20:00,
2013-11-01 01:24:00,49.9,36.6,29.80,WSW,245,0.0,1.0,60,0.00,,---,0.00,VWS V14.01,2013-11-01 06:24:00,
2013-11-01 01:29:00,49.3,36.8,29.80,SW,231,0.0,1.0,62,0.00,,---,0.00,VWS V14.01,2013-11-01 06:29:00,
2013-11-01 01:34:00,48.3,36.7,29.80,WSW,255,0.0,1.0,64,0.00,,---,0.00,VWS V14.01,2013-11-01 06:34:00,
2013-11-01 01:39:00,47.9,36.7,29.80,SSW,198,0.0,1.0,65,0.00,,---,0.00,VWS V14.01,2013-11-01 06:39:00,
2013-11-01 01:44:00,47.6,36.4,29.80,WSW,245,0.0,1.0,65,0.00,,---,0.00,VWS V14.01,2013-11-01 06:44:00,
2013-11-01 01:49:00,47.5,36.3,29.80,SW,232,0.0,1.0,65,0.00,,---,0.00,VWS V14.01,2013-11-01 06:49:00,
2013-11-01 01:54:00,47.3,36.5,29.80,WSW,253,0.0,1.0,66,0.00,,---,0.00,VWS V14.01,2013-11-01 06:54:00,
2013-11-01 01:59:00,47.0,36.2,29.80,WSW,240,0.0,1.0,66,0.00,,---,0.00,VWS V14.01,2013-11-01 06:59:00,
2013-11-01 02:04:00,46.8,36.4,29.81,WSW,250,0.0,0.0,67,0.00,,---,0.00,VWS V14.01,2013-11-01 07:04:00,
2013-11-01 02:09:00,46.7,36.3,29.81,WSW,242,0.0,1.0,67,0.00,,---,0.00,VWS V14.01,2013-11-01 07:09:00,
2013-11-01 02:14:00,46.6,36.6,29.81,WSW,252,1.0,1.0,68,0.00,,---,0.00,VWS V14.01,2013-11-01 07:14:00,
2013-11-01 02:19:00,46.4,36.4,29.81,West,264,0.0,1.0,68,0.00,,---,0.00,VWS V14.01,2013-11-01 07:19:00,
2013-11-01 02:24:00,46.2,36.6,29.81,WSW,255,0.0,1.0,69,0.00,,---,0.00,VWS V14.01,2013-11-01 07:24:00,
2013-11-01 02:29:00,46.0,36.4,29.82,WSW,243,0.0,1.0,69,0.00,,---,0.00,VWS V14.01,2013-11-01 07:29:00,
2013-11-01 02:34:00,45.7,36.5,29.82,WSW,250,0.0,1.0,70,0.00,,---,0.00,VWS V14.01,2013-11-01 07:34:00,
2013-11-01 02:39:00,45.4,36.6,29.82,WSW,250,0.0,1.0,71,0.00,,---,0.00,VWS V14.01,2013-11-01 07:39:00,
2013-11-01 02:44:00,45.0,36.5,29.81,WSW,250,0.0,1.0,72,0.00,,---,0.00,VWS V14.01,2013-11-01 07:44:00,
2013-11-01 02:49:00,44.7,36.6,29.82,WSW,250,0.0,0.0,73,0.00,,---,0.00,VWS V14.01,2013-11-01 07:49:00,
2013-11-01 02:54:00,44.4,36.7,29.82,WSW,245,0.0,1.0,74,0.00,,---,0.00,VWS V14.01,2013-11-01 07:54:00,
2013-11-01 02:59:00,44.0,36.3,29.82,WSW,239,0.0,1.0,74,0.00,,---,0.00,VWS V14.01,2013-11-01 07:59:00,
2013-11-01 03:04:00,43.8,36.4,29.83,SW,234,0.0,1.0,75,0.00,,---,0.00,VWS V14.01,2013-11-01 08:04:00,
2013-11-01 03:09:00,43.7,36.6,29.83,SW,226,0.0,1.0,76,0.00,,---,0.00,VWS V14.01,2013-11-01 08:09:00,
2013-11-01 03:14:00,43.5,36.5,29.83,SSW,197,0.0,1.0,76,0.00,,---,0.00,VWS V14.01,2013-11-01 08:14:00,
2013-11-01 03:19:00,43.6,36.2,29.83,West,259,0.0,1.0,75,0.00,,---,0.00,VWS V14.01,2013-11-01 08:19:00,
2013-11-01 03:24:00,43.6,36.2,29.82,WSW,250,0.0,1.0,75,0.00,,---,0.00,VWS V14.01,2013-11-01 08:24:00,
2013-11-01 03:29:00,43.5,36.1,29.82,WSW,239,0.0,1.0,75,0.00,,---,0.00,VWS V14.01,2013-11-01 08:29:00,
2013-11-01 03:34:00,43.5,36.1,29.83,SW,236,0.0,1.0,75,0.00,,---,0.00,VWS V14.01,2013-11-01 08:34:00,
2013-11-01 03:39:00,43.4,36.0,29.83,WSW,245,0.0,1.0,75,0.00,,---,0.00,VWS V14.01,2013-11-01 08:39:00,
2013-11-01 03:44:00,43.3,35.9,29.83,SW,224,0.0,1.0,75,0.00,,---,0.00,VWS V14.01,2013-11-01 08:44:00,
2013-11-01 03:49:00,43.2,35.8,29.83,West,264,1.0,1.0,75,0.00,,---,0.00,VWS V14.01,2013-11-01 08:49:00,
2013-11-01 03:54:00,43.1,36.1,29.83,SW,235,1.0,1.0,76,0.00,,---,0.00,VWS V14.01,2013-11-01 08:54:00,
2013-11-01 03:59:00,43.0,36.0,29.83,SW,224,0.0,4.0,76,0.00,,---,0.00,VWS V14.01,2013-11-01 08:59:00,
2013-11-01 04:04:00,42.8,36.1,29.83,WSW,257,0.0,0.0,77,0.00,,---,0.00,VWS V14.01,2013-11-01 09:04:00,
2013-11-01 04:09:00,42.7,36.0,29.83,SW,216,1.0,1.0,77,0.00,,---,0.00,VWS V14.01,2013-11-01 09:09:00,
2013-11-01 04:14:00,42.5,36.1,29.83,SW,231,0.0,1.0,78,0.00,,---,0.00,VWS V14.01,2013-11-01 09:14:00,
2013-11-01 04:19:00,42.3,35.9,29.83,West,274,0.0,1.0,78,0.00,,---,0.00,VWS V14.01,2013-11-01 09:19:00,
2013-11-01 04:24:00,42.2,36.2,29.83,SW,218,0.0,1.0,79,0.00,,---,0.00,VWS V14.01,2013-11-01 09:24:00,
2013-11-01 04:29:00,41.9,35.9,29.83,WSW,242,0.0,1.0,79,0.00,,---,0.00,VWS V14.01,2013-11-01 09:29:00,
2013-11-01 04:34:00,41.7,36.0,29.83,WSW,249,0.0,1.0,80,0.00,,---,0.00,VWS V14.01,2013-11-01 09:34:00,
2013-11-01 04:39:00,41.6,35.9,29.83,West,278,0.0,1.0,80,0.00,,---,0.00,VWS V14.01,2013-11-01 09:39:00,
2013-11-01 04:44:00,41.4,36.0,29.83,SW,233,0.0,1.0,81,0.00,,---,0.00,VWS V14.01,2013-11-01 09:44:00,
2013-11-01 04:49:00,41.3,35.9,29.83,SW,225,0.0,1.0,81,0.00,,---,0.00,VWS V14.01,2013-11-01 09:49:00,
2013-11-01 04:54:00,41.2,35.8,29.83,WSW,238,0.0,1.0,81,0.00,,---,0.00,VWS V14.01,2013-11-01 09:54:00,
2013-11-01 04:59:00,41.2,35.8,29.84,WSW,248,0.0,1.0,81,0.00,,---,0.00,VWS V14.01,2013-11-01 09:59:00,
2013-11-01 05:04:00,41.1,36.0,29.84,WSW,242,0.0,1.0,82,0.00,,---,0.00,VWS V14.01,2013-11-01 10:04:00,
2013-11-01 05:09:00,41.3,35.9,29.84,WSW,242,0.0,1.0,81,0.00,,---,0.00,VWS V14.01,2013-11-01 10:09:00,
2013-11-01 05:14:00,41.3,35.9,29.84,WSW,242,0.0,1.0,81,0.00,,---,0.00,VWS V14.01,2013-11-01 10:14:00,
2013-11-01 05:19:00,41.3,35.9,29.84,WSW,242,0.0,0.0,81,0.00,,---,0.00,VWS V14.01,2013-11-01 10:19:00,
2013-11-01 05:24:00,41.3,35.9,29.84,WSW,242,0.0,0.0,81,0.00,,---,0.00,VWS V14.01,2013-11-01 10:24:00,
2013-11-01 05:29:00,41.3,35.9,29.85,WSW,242,0.0,0.0,81,0.00,,---,0.00,VWS V14.01,2013-11-01 10:29:00,
2013-11-01 05:34:00,41.3,35.9,29.85,WSW,242,0.0,0.0,81,0.00,,---,0.00,VWS V14.01,2013-11-01 10:34:00,
2013-11-01 05:39:00,41.3,35.9,29.85,WSW,242,0.0,0.0,81,0.00,,---,0.00,VWS V14.01,2013-11-01 10:39:00,
2013-11-01 05:44:00,41.3,35.9,29.85,WSW,242,0.0,0.0,81,0.00,,---,0.00,VWS V14.01,2013-11-01 10:44:00,
2013-11-01 05:49:00,41.3,35.9,29.85,WSW,242,0.0,0.0,81,0.00,,---,0.00,VWS V14.01,2013-11-01 10:49:00,
2013-11-01 05:54:00,41.3,35.9,29.85,WSW,242,0.0,0.0,81,0.00,,---,0.00,VWS V14.01,2013-11-01 10:54:00,
2013-11-01 05:59:00,41.3,35.9,29.85,WSW,242,0.0,0.0,81,0.00,,---,0.00,VWS V14.01,2013-11-01 10:59:00,
2013-11-01 06:04:00,41.3,35.9,29.85,WSW,242,0.0,0.0,81,0.00,,---,0.00,VWS V14.01,2013-11-01 11:04:00,
2013-11-01 06:09:00,41.3,35.9,29.85,WSW,242,0.0,0.0,81,0.00,,---,0.00,VWS V14.01,2013-11-01 11:09:00,
2013-11-01 06:14:00,41.3,35.9,29.85,WSW,242,0.0,0.0,81,0.00,,---,0.00,VWS V14.01,2013-11-01 11:14:00,
2013-11-01 06:19:00,41.3,35.9,29.86,WSW,242,0.0,0.0,81,0.00,,---,0.00,VWS V14.01,2013-11-01 11:19:00,
2013-11-01 06:24:00,41.3,35.9,29.86,WSW,242,0.0,0.0,81,0.00,,---,0.00,VWS V14.01,2013-11-01 11:24:00,
2013-11-01 06:29:00,41.3,35.9,29.86,WSW,242,0.0,0.0,81,0.00,,---,0.00,VWS V14.01,2013-11-01 11:29:00,
2013-11-01 06:34:00,41.3,35.9,29.86,WSW,242,0.0,0.0,81,0.00,,---,0.00,VWS V14.01,2013-11-01 11:34:00,
2013-11-01 06:39:00,41.3,35.9,29.86,WSW,242,0.0,0.0,81,0.00,,---,0.00,VWS V14.01,2013-11-01 11:39:00,
2013-11-01 06:44:00,41.3,35.9,29.86,WSW,242,0.0,0.0,81,0.00,,---,0.00,VWS V14.01,2013-11-01 11:44:00,
2013-11-01 06:49:00,41.3,35.9,29.86,WSW,242,0.0,0.0,81,0.00,,---,0.00,VWS V14.01,2013-11-01 11:49:00,
2013-11-01 06:54:00,41.3,35.9,29.86,WSW,242,0.0,0.0,81,0.00,,---,0.00,VWS V14.01,2013-11-01 11:54:00,
2013-11-01 06:59:00,41.3,35.9,29.86,WSW,242,0.0,0.0,81,0.00,,---,0.00,VWS V14.01,2013-11-01 11:59:00,
2013-11-01 07:04:00,41.3,35.9,29.86,WSW,242,0.0,0.0,81,0.00,,---,0.00,VWS V14.01,2013-11-01 12:04:00,
2013-11-01 07:09:00,41.3,35.9,29.87,WSW,242,0.0,0.0,81,0.00,,---,0.00,VWS V14.01,2013-11-01 12:09:00,
2013-11-01 07:14:00,41.3,35.9,29.87,WSW,242,0.0,0.0,81,0.00,,---,0.00,VWS V14.01,2013-11-01 12:14:00,
2013-11-01 07:19:00,41.3,35.9,29.87,WSW,242,0.0,0.0,81,0.00,,---,0.00,VWS V14.01,2013-11-01 12:19:00,
2013-11-01 07:24:00,41.3,35.9,29.87,WSW,242,0.0,0.0,81,0.00,,---,0.00,VWS V14.01,2013-11-01 12:24:00,
2013-11-01 07:29:00,41.3,35.9,29.87,WSW,242,0.0,0.0,81,0.00,,---,0.00,VWS V14.01,2013-11-01 12:29:00,
2013-11-01 07:34:00,41.3,35.9,29.88,WSW,242,0.0,0.0,81,0.00,,---,0.00,VWS V14.01,2013-11-01 12:34:00,
2013-11-01 07:39:00,41.3,35.9,29.87,WSW,242,0.0,0.0,81,0.00,,---,0.00,VWS V14.01,2013-11-01 12:39:00,
2013-11-01 07:44:00,41.3,35.9,29.88,WSW,242,0.0,0.0,81,0.00,,---,0.00,VWS V14.01,2013-11-01 12:44:00,
2013-11-01 07:49:00,41.3,35.9,29.88,WSW,242,0.0,0.0,81,0.00,,---,0.00,VWS V14.01,2013-11-01 12:49:00,
2013-11-01 07:53:00,41.3,35.9,29.88,WSW,242,0.0,0.0,81,0.00,,---,0.00,VWS V14.01,2013-11-01 12:53:00,
2013-11-01 07:58:00,41.3,35.9,29.88,WSW,242,0.0,0.0,81,0.00,,---,0.00,VWS V14.01,2013-11-01 12:58:00,
2013-11-01 08:03:00,41.3,35.9,29.89,WSW,242,0.0,0.0,81,0.00,,---,0.00,VWS V14.01,2013-11-01 13:03:00,
2013-11-01 08:08:00,41.3,35.9,29.89,WSW,242,0.0,0.0,81,0.00,,---,0.00,VWS V14.01,2013-11-01 13:08:00,
2013-11-01 08:13:00,41.3,35.9,29.89,WSW,242,0.0,0.0,81,0.00,,---,0.00,VWS V14.01,2013-11-01 13:13:00,
2013-11-01 08:18:00,41.3,35.9,29.89,WSW,242,0.0,0.0,81,0.00,,---,0.00,VWS V14.01,2013-11-01 13:18:00,
2013-11-01 08:23:00,41.3,35.9,29.89,WSW,242,0.0,0.0,81,0.00,,---,0.00,VWS V14.01,2013-11-01 13:23:00,
2013-11-01 08:28:00,41.3,35.9,29.89,WSW,242,0.0,0.0,81,0.00,,---,0.00,VWS V14.01,2013-11-01 13:28:00,
2013-11-01 08:33:00,41.3,35.9,29.90,WSW,242,0.0,0.0,81,0.00,,---,0.00,VWS V14.01,2013-11-01 13:33:00,
2013-11-01 08:38:00,41.3,35.9,29.91,WSW,242,0.0,0.0,81,0.00,,---,0.00,VWS V14.01,2013-11-01 13:38:00,
2013-11-01 08:43:00,41.3,35.9,29.91,WSW,242,0.0,0.0,81,0.00,,---,0.00,VWS V14.01,2013-11-01 13:43:00,
2013-11-01 08:48:00,41.3,35.9,29.92,WSW,242,0.0,0.0,81,0.00,,---,0.00,VWS V14.01,2013-11-01 13:48:00,
2013-11-01 08:53:00,45.8,38.7,29.92,WNW,300,0.0,1.0,76,0.00,,---,0.00,VWS V14.01,2013-11-01 13:53:00,
2013-11-01 08:58:00,46.3,38.8,29.92,NW,309,0.0,1.0,75,0.00,,---,0.00,VWS V14.01,2013-11-01 13:58:00,
2013-11-01 09:03:00,46.7,38.9,29.92,West,268,0.0,1.0,74,0.00,,---,0.00,VWS V14.01,2013-11-01 14:03:00,
2013-11-01 09:08:00,47.0,39.2,29.93,WNW,293,0.0,1.0,74,0.00,,---,0.00,VWS V14.01,2013-11-01 14:08:00,
2013-11-01 09:13:00,47.2,39.3,29.93,WNW,292,0.0,1.0,74,0.00,,---,0.00,VWS V14.01,2013-11-01 14:13:00,
2013-11-01 09:18:00,47.6,39.4,29.93,NW,311,0.0,1.0,73,0.00,,---,0.00,VWS V14.01,2013-11-01 14:18:00,
2013-11-01 09:23:00,48.0,39.4,29.94,WNW,302,1.0,5.0,72,0.00,,---,0.00,VWS V14.01,2013-11-01 14:23:00,
2013-11-01 09:28:00,48.4,39.4,29.94,NW,308,2.0,5.0,71,0.00,,---,0.00,VWS V14.01,2013-11-01 14:28:00,
2013-11-01 09:33:00,48.9,39.2,29.95,West,277,4.0,8.0,69,0.00,,---,0.00,VWS V14.01,2013-11-01 14:33:00,
2013-11-01 09:38:00,49.2,39.5,29.95,NW,316,2.0,8.0,69,0.00,,---,0.00,VWS V14.01,2013-11-01 14:38:00,
2013-11-01 09:43:00,49.7,39.6,29.95,NW,316,5.0,8.0,68,0.00,,---,0.00,VWS V14.01,2013-11-01 14:43:00,
2013-11-01 09:48:00,50.0,39.5,29.95,WNW,290,2.0,7.0,67,0.00,,---,0.00,VWS V14.01,2013-11-01 14:48:00,
2013-11-01 09:53:00,50.0,39.5,29.95,NW,311,4.0,9.0,67,0.00,,---,0.00,VWS V14.01,2013-11-01 14:53:00,
2013-11-01 09:58:00,50.4,39.9,29.95,NW,311,2.0,9.0,67,0.00,,---,0.00,VWS V14.01,2013-11-01 14:58:00,
2013-11-01 10:03:00,50.8,40.2,29.95,WNW,284,3.0,8.0,67,0.00,,---,0.00,VWS V14.01,2013-11-01 15:03:00,
2013-11-01 10:08:00,51.6,41.0,29.95,NE,45,5.0,8.0,67,0.00,,---,0.00,VWS V14.01,2013-11-01 15:08:00,
2013-11-01 10:13:00,52.2,40.8,29.95,NNW,337,4.0,12.0,65,0.00,,---,0.00,VWS V14.01,2013-11-01 15:13:00,
2013-11-01 10:18:00,52.3,40.5,29.96,WNW,284,4.0,14.0,64,0.00,,---,0.00,VWS V14.01,2013-11-01 15:18:00,
2013-11-01 10:23:00,52.3,40.5,29.96,WNW,290,8.0,14.0,64,0.00,,---,0.00,VWS V14.01,2013-11-01 15:23:00,
2013-11-01 10:28:00,52.7,40.9,29.96,NW,309,4.0,14.0,64,0.00,,---,0.00,VWS V14.01,2013-11-01 15:28:00,
2013-11-01 10:33:00,53.1,40.8,29.96,NW,318,8.0,12.0,63,0.00,,---,0.00,VWS V14.01,2013-11-01 15:33:00,
2013-11-01 10:38:00,53.2,41.0,29.96,NNW,335,4.0,12.0,63,0.00,,---,0.00,VWS V14.01,2013-11-01 15:38:00,
2013-11-01 10:43:00,53.2,40.5,29.97,NW,316,3.0,12.0,62,0.00,,---,0.00,VWS V14.01,2013-11-01 15:43:00,
2013-11-01 10:48:00,53.1,40.4,29.97,NNW,327,7.0,10.0,62,0.00,,---,0.00,VWS V14.01,2013-11-01 15:48:00,
2013-11-01 10:53:00,53.0,40.3,29.97,NW,305,12.0,14.0,62,0.00,,---,0.00,VWS V14.01,2013-11-01 15:53:00,
2013-11-01 10:58:00,53.0,40.3,29.97,WNW,302,5.0,14.0,62,0.00,,---,0.00,VWS V14.01,2013-11-01 15:58:00,
2013-11-01 11:03:00,53.3,40.6,29.97,NW,314,9.0,10.0,62,0.00,,---,0.00,VWS V14.01,2013-11-01 16:03:00,
2013-11-01 11:08:00,53.8,41.1,29.96,NW,308,6.0,12.0,62,0.00,,---,0.00,VWS V14.01,2013-11-01 16:08:00,
2013-11-01 11:13:00,54.5,41.8,29.97,WNW,297,9.0,12.0,62,0.00,,---,0.00,VWS V14.01,2013-11-01 16:13:00,
2013-11-01 11:18:00,54.7,41.1,29.97,North,354,8.0,14.0,60,0.00,,---,0.00,VWS V14.01,2013-11-01 16:18:00,
2013-11-01 11:23:00,54.5,40.9,29.97,NW,316,6.0,14.0,60,0.00,,---,0.00,VWS V14.01,2013-11-01 16:23:00,
2013-11-01 11:28:00,54.4,40.8,29.97,NNW,328,6.0,14.0,60,0.00,,---,0.00,VWS V14.01,2013-11-01 16:28:00,
2013-11-01 11:33:00,54.8,41.2,29.97,NW,324,4.0,12.0,60,0.00,,---,0.00,VWS V14.01,2013-11-01 16:33:00,
2013-11-01 11:38:00,54.7,41.1,29.98,WNW,293,5.0,13.0,60,0.00,,---,0.00,VWS V14.01,2013-11-01 16:38:00,
2013-11-01 11:43:00,54.8,40.8,29.98,NW,311,11.0,13.0,59,0.00,,---,0.00,VWS V14.01,2013-11-01 16:43:00,
2013-11-01 11:48:00,54.6,41.0,29.98,NE,35,8.0,13.0,60,0.00,,---,0.00,VWS V14.01,2013-11-01 16:48:00,
2013-11-01 11:53:00,54.5,40.9,29.98,NW,322,5.0,13.0,60,0.00,,---,0.00,VWS V14.01,2013-11-01 16:53:00,
2013-11-01 11:58:00,55.2,41.6,29.98,NNW,327,10.0,13.0,60,0.00,,---,0.00,VWS V14.01,2013-11-01 16:58:00,
2013-11-01 12:03:00,55.8,41.7,29.98,NW,308,4.0,9.0,59,0.00,,---,0.00,VWS V14.01,2013-11-01 17:03:00,
2013-11-01 12:08:00,56.4,41.4,29.98,NNW,327,9.0,12.0,57,0.00,,---,0.00,VWS V14.01,2013-11-01 17:08:00,
2013-11-01 12:13:00,56.6,41.1,29.98,WNW,298,9.0,15.0,56,0.00,,---,0.00,VWS V14.01,2013-11-01 17:13:00,
2013-11-01 12:18:00,56.9,40.9,29.98,NW,310,4.0,12.0,55,0.00,,---,0.00,VWS V14.01,2013-11-01 17:18:00,
2013-11-01 12:23:00,57.1,41.1,29.98,NW,308,11.0,17.0,55,0.00,,---,0.00,VWS V14.01,2013-11-01 17:23:00,
2013-11-01 12:28:00,57.2,40.7,29.98,WNW,297,9.0,17.0,54,0.00,,---,0.00,VWS V14.01,2013-11-01 17:28:00,
2013-11-01 12:33:00,57.5,41.5,29.98,NW,306,8.0,11.0,55,0.00,,---,0.00,VWS V14.01,2013-11-01 17:33:00,
2013-11-01 12:38:00,57.8,41.8,29.98,NNW,337,8.0,12.0,55,0.00,,---,0.00,VWS V14.01,2013-11-01 17:38:00,
2013-11-01 12:43:00,58.0,41.0,29.98,NW,313,7.0,12.0,53,0.00,,---,0.00,VWS V14.01,2013-11-01 17:43:00,
2013-11-01 12:48:00,58.0,41.5,29.98,NW,309,12.0,13.0,54,0.00,,---,0.00,VWS V14.01,2013-11-01 17:48:00,
2013-11-01 12:53:00,58.3,41.3,29.98,WNW,302,5.0,13.0,53,0.00,,---,0.00,VWS V14.01,2013-11-01 17:53:00,
2013-11-01 12:58:00,58.3,41.8,29.97,NW,319,5.0,13.0,54,0.00,,---,0.00,VWS V14.01,2013-11-01 17:58:00,
2013-11-01 13:03:00,58.4,41.3,29.97,WNW,297,7.0,11.0,53,0.00,,---,0.00,VWS V14.01,2013-11-01 18:03:00,
2013-11-01 13:08:00,58.7,41.1,29.97,NNE,15,11.0,13.0,52,0.00,,---,0.00,VWS V14.01,2013-11-01 18:08:00,
2013-11-01 13:13:00,58.8,41.7,29.97,NNW,340,8.0,13.0,53,0.00,,---,0.00,VWS V14.01,2013-11-01 18:13:00,
2013-11-01 13:18:00,59.2,41.6,29.97,NW,307,9.0,11.0,52,0.00,,---,0.00,VWS V14.01,2013-11-01 18:18:00,
2013-11-01 13:23:00,59.2,42.1,29.97,NW,308,7.0,13.0,53,0.00,,---,0.00,VWS V14.01,2013-11-01 18:23:00,
2013-11-01 13:28:00,59.4,41.8,29.97,NNW,338,9.0,14.0,52,0.00,,---,0.00,VWS V14.01,2013-11-01 18:28:00,
2013-11-01 13:33:00,59.5,41.4,29.97,WNW,290,7.0,7.0,51,0.00,,---,0.00,VWS V14.01,2013-11-01 18:33:00,
2013-11-01 13:38:00,60.0,40.8,29.96,NNW,335,3.0,14.0,49,0.00,,---,0.00,VWS V14.01,2013-11-01 18:38:00,
2013-11-01 13:43:00,60.1,40.4,29.96,NW,307,7.0,16.0,48,0.00,,---,0.00,VWS V14.01,2013-11-01 18:43:00,
2013-11-01 13:47:00,60.3,38.9,29.96,North,9,3.0,13.0,45,0.00,,---,0.00,VWS V14.01,2013-11-01 18:47:00,
2013-11-01 13:52:00,60.3,38.9,29.96,NNW,330,9.0,14.0,45,0.00,,---,0.00,VWS V14.01,2013-11-01 18:52:00,
2013-11-01 13:57:00,60.5,37.9,29.96,NW,322,11.0,14.0,43,0.00,,---,0.00,VWS V14.01,2013-11-01 18:57:00,
2013-11-01 14:02:00,60.5,37.9,29.97,NNW,345,4.0,14.0,43,0.00,,---,0.00,VWS V14.01,2013-11-01 19:02:00,
2013-11-01 14:07:00,60.6,37.4,29.96,WNW,284,5.0,14.0,42,0.00,,---,0.00,VWS V14.01,2013-11-01 19:07:00,
2013-11-01 14:12:00,60.8,37.0,29.96,WNW,300,7.0,14.0,41,0.00,,---,0.00,VWS V14.01,2013-11-01 19:12:00,
2013-11-01 14:17:00,61.3,38.0,29.96,NE,39,7.0,9.0,42,0.00,,---,0.00,VWS V14.01,2013-11-01 19:17:00,
2013-11-01 14:22:00,61.5,37.6,29.96,NW,314,4.0,11.0,41,0.00,,---,0.00,VWS V14.01,2013-11-01 19:22:00,
2013-11-01 14:27:00,61.4,38.1,29.96,WNW,302,9.0,13.0,42,0.00,,---,0.00,VWS V14.01,2013-11-01 19:27:00,
2013-11-01 14:32:00,61.4,36.2,29.96,WNW,297,7.0,13.0,39,0.00,,---,0.00,VWS V14.01,2013-11-01 19:32:00,
2013-11-01 14:37:00,61.6,37.1,29.96,NW,308,3.0,13.0,40,0.00,,---,0.00,VWS V14.01,2013-11-01 19:37:00,
2013-11-01 14:42:00,61.7,36.5,29.96,NW,322,6.0,13.0,39,0.00,,---,0.00,VWS V14.01,2013-11-01 19:42:00,
2013-11-01 14:47:00,61.9,37.3,29.96,NNW,340,5.0,14.0,40,0.00,,---,0.00,VWS V14.01,2013-11-01 19:47:00,
2013-11-01 14:52:00,62.0,36.8,29.96,NW,311,10.0,14.0,39,0.00,,---,0.00,VWS V14.01,2013-11-01 19:52:00,
2013-11-01 14:57:00,62.1,37.5,29.96,NW,316,11.0,14.0,40,0.00,,---,0.00,VWS V14.01,2013-11-01 19:57:00,
2013-11-01 15:02:00,61.9,37.3,29.96,WNW,302,6.0,11.0,40,0.00,,---,0.00,VWS V14.01,2013-11-01 20:02:00,
2013-11-01 15:07:00,61.6,35.8,29.96,NW,314,8.0,14.0,38,0.00,,---,0.00,VWS V14.01,2013-11-01 20:07:00,
2013-11-01 15:12:00,61.9,37.3,29.96,NW,319,4.0,14.0,40,0.00,,---,0.00,VWS V14.01,2013-11-01 20:12:00,
2013-11-01 15:17:00,62.3,36.4,29.96,NW,308,6.0,9.0,38,0.00,,---,0.00,VWS V14.01,2013-11-01 20:17:00,
2013-11-01 15:22:00,62.4,37.1,29.96,NNW,330,2.0,15.0,39,0.00,,---,0.00,VWS V14.01,2013-11-01 20:22:00,
2013-11-01 15:27:00,62.1,36.9,29.96,NNW,328,4.0,15.0,39,0.00,,---,0.00,VWS V14.01,2013-11-01 20:27:00,
2013-11-01 15:32:00,62.4,35.8,29.96,NNW,335,7.0,13.0,37,0.00,,---,0.00,VWS V14.01,2013-11-01 20:32:00,
2013-11-01 15:37:00,62.1,35.5,29.97,NNW,338,6.0,15.0,37,0.00,,---,0.00,VWS V14.01,2013-11-01 20:37:00,
2013-11-01 15:42:00,62.2,35.6,29.96,WNW,295,3.0,15.0,37,0.00,,---,0.00,VWS V14.01,2013-11-01 20:42:00,
2013-11-01 15:47:00,62.3,35.7,29.96,NW,311,11.0,14.0,37,0.00,,---,0.00,VWS V14.01,2013-11-01 20:47:00,
2013-11-01 15:52:00,62.5,35.9,29.97,WNW,300,9.0,14.0,37,0.00,,---,0.00,VWS V14.01,2013-11-01 20:52:00,
2013-11-01 15:57:00,62.5,35.9,29.97,NNW,328,9.0,15.0,37,0.00,,---,0.00,VWS V14.01,2013-11-01 20:57:00,
2013-11-01 16:02:00,62.6,35.3,29.97,NW,310,6.0,14.0,36,0.00,,---,0.00,VWS V14.01,2013-11-01 21:02:00,
2013-11-01 16:07:00,62.8,36.2,29.97,NW,314,5.0,14.0,37,0.00,,---,0.00,VWS V14.01,2013-11-01 21:07:00,
2013-11-01 16:12:00,63.1,35.7,29.97,WNW,283,7.0,14.0,36,0.00,,---,0.00,VWS V14.01,2013-11-01 21:12:00,
2013-11-01 16:17:00,63.0,35.7,29.97,WNW,284,5.0,9.0,36,0.00,,---,0.00,VWS V14.01,2013-11-01 21:17:00,
2013-11-01 16:22:00,62.9,34.8,29.97,NW,315,7.0,13.0,35,0.00,,---,0.00,VWS V14.01,2013-11-01 21:22:00,
2013-11-01 16:27:00,62.7,34.7,29.98,NNW,328,8.0,14.0,35,0.00,,---,0.00,VWS V14.01,2013-11-01 21:27:00,
2013-11-01 16:32:00,62.3,34.3,29.97,NW,316,5.0,11.0,35,0.00,,---,0.00,VWS V14.01,2013-11-01 21:32:00,
2013-11-01 16:37:00,62.0,34.8,29.98,WSW,245,4.0,13.0,36,0.00,,---,0.00,VWS V14.01,2013-11-01 21:37:00,
2013-11-01 16:42:00,61.4,34.9,29.98,NW,319,6.0,13.0,37,0.00,,---,0.00,VWS V14.01,2013-11-01 21:42:00,
2013-11-01 16:47:00,61.2,34.7,29.98,NW,308,11.0,14.0,37,0.00,,---,0.00,VWS V14.01,2013-11-01 21:47:00,
2013-11-01 16:52:00,61.5,35.0,29.98,NW,308,4.0,14.0,37,0.00,,---,0.00,VWS V14.01,2013-11-01 21:52:00,
2013-11-01 16:57:00,61.7,34.5,29.98,North,9,7.0,14.0,36,0.00,,---,0.00,VWS V14.01,2013-11-01 21:57:00,
2013-11-01 17:02:00,60.3,38.3,30.00,WSW,245,9.0,14.0,44,0.00,,---,0.00,VWS V14.01,2013-11-01 22:02:00,
2013-11-01 17:07:00,58.9,37.0,30.00,NW,311,5.0,14.0,44,0.00,,---,0.00,VWS V14.01,2013-11-01 22:07:00,
2013-11-01 17:12:00,58.3,37.6,30.00,NW,322,4.0,14.0,46,0.00,,---,0.00,VWS V14.01,2013-11-01 22:12:00,
2013-11-01 17:17:00,58.5,37.8,30.00,WNW,290,3.0,7.0,46,0.00,,---,0.00,VWS V14.01,2013-11-01 22:17:00,
2013-11-01 17:22:00,59.0,37.7,29.99,WNW,301,5.0,8.0,45,0.00,,---,0.00,VWS V14.01,2013-11-01 22:22:00,
2013-11-01 17:27:00,59.3,37.4,30.00,WNW,292,7.0,11.0,44,0.00,,---,0.00,VWS V14.01,2013-11-01 22:27:00,
2013-11-01 17:32:00,59.4,38.1,30.00,NW,316,6.0,8.0,45,0.00,,---,0.00,VWS V14.01,2013-11-01 22:32:00,
2013-11-01 17:37:00,59.5,38.2,29.99,West,276,5.0,9.0,45,0.00,,---,0.00,VWS V14.01,2013-11-01 22:37:00,
2013-11-01 17:42:00,59.4,37.5,29.99,NW,314,4.0,9.0,44,0.00,,---,0.00,VWS V14.01,2013-11-01 22:42:00,
2013-11-01 17:47:00,59.1,37.8,29.99,West,277,0.0,1.0,45,0.00,,---,0.00,VWS V14.01,2013-11-01 22:47:00,
2013-11-01 17:52:00,58.8,37.5,29.99,West,273,4.0,5.0,45,0.00,,---,0.00,VWS V14.01,2013-11-01 22:52:00,
2013-11-01 17:57:00,58.6,37.9,30.00,NW,308,6.0,8.0,46,0.00,,---,0.00,VWS V14.01,2013-11-01 22:57:00,
2013-11-01 18:02:00,58.7,38.0,30.00,NNW,329,7.0,8.0,46,0.00,,---,0.00,VWS V14.01,2013-11-01 23:02:00,
2013-11-01 18:07:00,58.8,37.5,30.00,WNW,293,3.0,9.0,45,0.00,,---,0.00,VWS V14.01,2013-11-01 23:07:00,
2013-11-01 18:12:00,58.7,37.4,30.01,West,281,2.0,9.0,45,0.00,,---,0.00,VWS V14.01,2013-11-01 23:12:00,
2013-11-01 18:17:00,58.2,35.2,30.01,WNW,302,5.0,7.0,42,0.00,,---,0.00,VWS V14.01,2013-11-01 23:17:00,
2013-11-01 18:22:00,57.7,34.8,30.02,NW,315,4.0,7.0,42,0.00,,---,0.00,VWS V14.01,2013-11-01 23:22:00,
2013-11-01 18:27:00,57.2,34.9,30.02,NW,311,7.0,7.0,43,0.00,,---,0.00,VWS V14.01,2013-11-01 23:27:00,
2013-11-01 18:32:00,56.7,35.0,30.02,WNW,302,5.0,11.0,44,0.00,,---,0.00,VWS V14.01,2013-11-01 23:32:00,
2013-11-01 18:37:00,56.4,35.9,30.02,NW,304,8.0,11.0,46,0.00,,---,0.00,VWS V14.01,2013-11-01 23:37:00,
2013-11-01 18:42:00,56.2,36.3,30.02,NW,304,6.0,11.0,47,0.00,,---,0.00,VWS V14.01,2013-11-01 23:42:00,
2013-11-01 18:47:00,55.9,36.5,30.02,WNW,295,2.0,5.0,48,0.00,,---,0.00,VWS V14.01,2013-11-01 23:47:00,
2013-11-01 18:52:00,55.6,36.2,30.02,WNW,292,2.0,7.0,48,0.00,,---,0.00,VWS V14.01,2013-11-01 23:52:00,
2013-11-01 18:57:00,55.3,36.5,30.03,NW,305,0.0,7.0,49,0.00,,---,0.00,VWS V14.01,2013-11-01 23:57:00,
2013-11-01 19:02:00,55.0,36.7,30.04,NW,310,2.0,5.0,50,0.00,,---,0.00,VWS V14.01,2013-11-02 00:02:00,
2013-11-01 19:07:00,54.7,36.9,30.05,NW,326,5.0,10.0,51,0.00,,---,0.00,VWS V14.01,2013-11-02 00:07:00,
2013-11-01 19:12:00,54.9,38.6,30.06,NW,324,4.0,13.0,54,0.00,,---,0.00,VWS V14.01,2013-11-02 00:12:00,
2013-11-01 19:17:00,54.7,38.9,30.06,NW,322,8.0,10.0,55,0.00,,---,0.00,VWS V14.01,2013-11-02 00:17:00,
2013-11-01 19:22:00,54.8,39.0,30.05,NW,318,3.0,10.0,55,0.00,,---,0.00,VWS V14.01,2013-11-02 00:22:00,
2013-11-01 19:27:00,55.1,38.3,30.06,WNW,302,9.0,13.0,53,0.00,,---,0.00,VWS V14.01,2013-11-02 00:27:00,
2013-11-01 19:32:00,55.1,38.3,30.06,NW,308,2.0,6.0,53,0.00,,---,0.00,VWS V14.01,2013-11-02 00:32:00,
2013-11-01 19:37:00,54.6,38.8,30.07,NW,316,2.0,6.0,55,0.00,,---,0.00,VWS V14.01,2013-11-02 00:37:00,
2013-11-01 19:42:00,54.2,38.9,30.07,NW,307,1.0,7.0,56,0.00,,---,0.00,VWS V14.01,2013-11-02 00:42:00,
2013-11-01 19:47:00,53.7,38.8,30.07,NW,308,0.0,0.0,57,0.00,,---,0.00,VWS V14.01,2013-11-02 00:47:00,
2013-11-01 19:52:00,53.3,38.9,30.07,WNW,292,0.0,1.0,58,0.00,,---,0.00,VWS V14.01,2013-11-02 00:52:00,
2013-11-01 19:57:00,53.0,38.6,30.07,WNW,300,0.0,1.0,58,0.00,,---,0.00,VWS V14.01,2013-11-02 00:57:00,
2013-11-01 20:02:00,52.7,38.8,30.08,NW,311,0.0,0.0,59,0.00,,---,0.00,VWS V14.01,2013-11-02 01:02:00,
2013-11-01 20:07:00,52.5,39.0,30.08,West,278,0.0,1.0,60,0.00,,---,0.00,VWS V14.01,2013-11-02 01:07:00,
2013-11-01 20:12:00,52.3,38.8,30.08,NW,316,0.0,1.0,60,0.00,,---,0.00,VWS V14.01,2013-11-02 01:12:00,
2013-11-01 20:16:00,52.2,38.3,30.08,WNW,295,0.0,0.0,59,0.00,,---,0.00,VWS V14.01,2013-11-02 01:16:00,
2013-11-01 20:21:00,52.3,38.4,30.08,WNW,301,0.0,1.0,59,0.00,,---,0.00,VWS V14.01,2013-11-02 01:21:00,
2013-11-01 20:26:00,52.3,38.0,30.08,WNW,297,0.0,1.0,58,0.00,,---,0.00,VWS V14.01,2013-11-02 01:26:00,
2013-11-01 20:31:00,52.4,37.6,30.09,NW,305,0.0,0.0,57,0.00,,---,0.00,VWS V14.01,2013-11-02 01:31:00,
2013-11-01 20:36:00,52.6,37.8,30.09,WNW,301,0.0,1.0,57,0.00,,---,0.00,VWS V14.01,2013-11-02 01:36:00,
2013-11-01 20:41:00,52.6,37.8,30.09,WNW,292,0.0,1.0,57,0.00,,---,0.00,VWS V14.01,2013-11-02 01:41:00,
2013-11-01 20:46:00,52.6,37.8,30.09,NW,317,0.0,0.0,57,0.00,,---,0.00,VWS V14.01,2013-11-02 01:46:00,
2013-11-01 20:51:00,52.7,37.5,30.09,NW,322,0.0,0.0,56,0.00,,---,0.00,VWS V14.01,2013-11-02 01:51:00,
2013-11-01 20:56:00,52.7,37.5,30.10,WNW,302,3.0,3.0,56,0.00,,---,0.00,VWS V14.01,2013-11-02 01:56:00,
2013-11-01 21:01:00,52.7,37.5,30.10,NW,316,1.0,4.0,56,0.00,,---,0.00,VWS V14.01,2013-11-02 02:01:00,
2013-11-01 21:06:00,52.6,37.4,30.10,NW,307,0.0,5.0,56,0.00,,---,0.00,VWS V14.01,2013-11-02 02:06:00,
2013-11-01 21:11:00,52.4,37.6,30.10,NW,326,0.0,5.0,57,0.00,,---,0.00,VWS V14.01,2013-11-02 02:11:00,
2013-11-01 21:16:00,52.1,37.3,30.10,NW,305,0.0,0.0,57,0.00,,---,0.00,VWS V14.01,2013-11-02 02:16:00,
2013-11-01 21:21:00,51.9,37.2,30.11,NW,311,2.0,3.0,57,0.00,,---,0.00,VWS V14.01,2013-11-02 02:21:00,
2013-11-01 21:26:00,51.6,36.9,30.12,WNW,302,0.0,6.0,57,0.00,,---,0.00,VWS V14.01,2013-11-02 02:26:00,
2013-11-01 21:31:00,51.3,37.0,30.12,NW,322,4.0,4.0,58,0.00,,---,0.00,VWS V14.01,2013-11-02 02:31:00,
2013-11-01 21:36:00,51.1,36.8,30.12,NE,46,0.0,4.0,58,0.00,,---,0.00,VWS V14.01,2013-11-02 02:36:00,
2013-11-01 21:41:00,50.8,37.0,30.12,NNW,335,0.0,4.0,59,0.00,,---,0.00,VWS V14.01,2013-11-02 02:41:00,
2013-11-01 21:46:00,50.4,36.6,30.12,NW,319,0.0,0.0,59,0.00,,---,0.00,VWS V14.01,2013-11-02 02:46:00,
2013-11-01 21:51:00,50.0,36.7,30.13,NW,304,0.0,0.0,60,0.00,,---,0.00,VWS V14.01,2013-11-02 02:51:00,
2013-11-01 21:56:00,49.7,36.8,30.13,NW,316,0.0,0.0,61,0.00,,---,0.00,VWS V14.01,2013-11-02 02:56:00,
2013-11-01 22:01:00,49.5,36.6,30.13,NW,324,3.0,3.0,61,0.00,,---,0.00,VWS V14.01,2013-11-02 03:01:00,
2013-11-01 22:06:00,49.6,36.3,30.14,NW,314,4.0,4.0,60,0.00,,---,0.00,VWS V14.01,2013-11-02 03:06:00,
2013-11-01 22:11:00,49.8,36.1,30.14,NW,316,6.0,8.0,59,0.00,,---,0.00,VWS V14.01,2013-11-02 03:11:00,
2013-11-01 22:16:00,50.2,35.6,30.14,WNW,290,3.0,7.0,57,0.00,,---,0.00,VWS V14.01,2013-11-02 03:16:00,
2013-11-01 22:21:00,50.6,35.0,30.14,NW,311,4.0,12.0,55,0.00,,---,0.00,VWS V14.01,2013-11-02 03:21:00,
2013-11-01 22:26:00,50.8,35.2,30.15,NW,313,4.0,12.0,55,0.00,,---,0.00,VWS V14.01,2013-11-02 03:26:00,
2013-11-01 22:31:00,50.6,35.5,30.15,NW,308,2.0,5.0,56,0.00,,---,0.00,VWS V14.01,2013-11-02 03:31:00,
2013-11-01 22:36:00,50.3,35.2,30.16,NW,311,4.0,8.0,56,0.00,,---,0.00,VWS V14.01,2013-11-02 03:36:00,
2013-11-01 22:41:00,49.9,34.8,30.16,NW,308,4.0,8.0,56,0.00,,---,0.00,VWS V14.01,2013-11-02 03:41:00,
2013-11-01 22:46:00,49.6,35.0,30.16,West,281,4.0,6.0,57,0.00,,---,0.00,VWS V14.01,2013-11-02 03:46:00,
2013-11-01 22:51:00,49.2,35.1,30.16,NW,308,2.0,9.0,58,0.00,,---,0.00,VWS V14.01,2013-11-02 03:51:00,
2013-11-01 22:56:00,48.9,34.8,30.16,NW,316,3.0,9.0,58,0.00,,---,0.00,VWS V14.01,2013-11-02 03:56:00,
2013-11-01 23:01:00,48.7,35.0,30.17,NNW,346,4.0,6.0,59,0.00,,---,0.00,VWS V14.01,2013-11-02 04:01:00,
2013-11-01 23:06:00,48.5,34.8,30.17,WNW,297,6.0,7.0,59,0.00,,---,0.00,VWS V14.01,2013-11-02 04:06:00,
2013-11-01 23:11:00,48.3,35.1,30.17,NW,313,3.0,9.0,60,0.00,,---,0.00,VWS V14.01,2013-11-02 04:11:00,
2013-11-01 23:16:00,48.1,34.9,30.17,NW,319,2.0,4.0,60,0.00,,---,0.00,VWS V14.01,2013-11-02 04:16:00,
2013-11-01 23:21:00,47.8,34.6,30.17,NW,311,4.0,8.0,60,0.00,,---,0.00,VWS V14.01,2013-11-02 04:21:00,
2013-11-01 23:26:00,47.6,34.8,30.17,NW,311,2.0,8.0,61,0.00,,---,0.00,VWS V14.01,2013-11-02 04:26:00,
2013-11-01 23:31:00,47.4,34.6,30.17,NW,306,5.0,5.0,61,0.00,,---,0.00,VWS V14.01,2013-11-02 04:31:00,
2013-11-01 23:36:00,47.2,34.5,30.17,NW,314,1.0,6.0,61,0.00,,---,0.00,VWS V14.01,2013-11-02 04:36:00,
2013-11-01 23:41:00,47.0,34.7,30.17,NW,313,1.0,6.0,62,0.00,,---,0.00,VWS V14.01,2013-11-02 04:41:00,
2013-11-01 23:46:00,46.8,34.5,30.17,NNW,335,1.0,2.0,62,0.00,,---,0.00,VWS V14.01,2013-11-02 04:46:00,
2013-11-01 23:51:00,46.5,34.6,30.17,WNW,298,0.0,2.0,63,0.00,,---,0.00,VWS V14.01,2013-11-02 04:51:00,
2013-11-01 23:56:00,46.3,34.4,30.17,WNW,302,0.0,2.0,63,0.00,,---,0.00,VWS V14.01,2013-11-02 04:56:00,